Change the Weather History Date:

Wednesday, December 12, 2012

  Actual Average Record
Temperature  
Mean Temperature 58 °F 63 °F  
Max Temperature 70 °F 72 °F 85 °F (1981)
Min Temperature 46 °F 53 °F 30 °F (1966)
Degree Days  
Heating Degree Days 7 5  
Month to date heating degree days 19 52  
Since 1 July heating degree days 22 106  
Cooling Degree Days 0 3  
Month to date cooling degree days 81 38  
Year to date cooling degree days 4741 3983  
Growing Degree Days 4 (Base 50)    
Moisture  
Dew Point 41 °F    
Average Humidity 63    
Maximum Humidity 89    
Minimum Humidity 37    
Precipitation  
Precipitation T in 0.03 in 1.95 in (1891)
Month to date precipitation 0.32 0.49  
Year to date precipitation 21.40 26.78  
Sea Level Pressure  
Sea Level Pressure 30.23 in    
Wind  
Wind Speed 7 mph (North)    
Max Wind Speed 15 mph    
Max Gust Speed 21 mph    
Visibility 10 miles    
Events Rain    
T = Trace of Precipitation, MM = Missing Value Source: NWS Daily Summary

Daily Weather History Graph

Daily Weather History Graph

Search for Another Location

Airport or City:

Trip Planner

Search our weather history database for the weather conditions in past years. The results will help you decide how hot, cold, wet, or windy it might be!

Date:

Astronomy

Dec. 12, 2012 Rise Set
Actual Time 7:07 AM CST 5:39 PM CST
Civil Twilight 6:42 AM CST 6:05 PM CST
Nautical Twilight 6:13 AM CST 6:33 PM CST
Astronomical Twilight 5:45 AM CST 7:02 PM CST
Moon 6:15 AM CST (12/12) 5:16 PM CST (12/12)
Length of Visible Light 11h 22m
Length of Day
10h 32m
Waning Crescent, 1% of the Moon is Illuminated
Dec 12
Waning Crescent
Dec 13
New
Dec 19
First Quarter
Dec 28
Full
Jan 4
Last Quarter

Hourly Weather History & Observations

Time (CST) Temp. Windchill Dew Point Humidity Pressure Visibility Wind Dir Wind Speed Gust Speed Precip Events Conditions
12:53 AM 53.1 °F - 34.0 °F 48% 30.20 in 10.0 mi NNW 9.2 mph - N/A   Overcast
1:53 AM 53.1 °F - 34.0 °F 48% 30.20 in 10.0 mi NNW 8.1 mph - N/A   Overcast
2:53 AM 53.1 °F - 34.0 °F 48% 30.19 in 10.0 mi NNW 8.1 mph - N/A   Overcast
3:53 AM 52.0 °F - 33.1 °F 49% 30.20 in 10.0 mi NNW 8.1 mph - 0.00 in Rain Light Rain
4:53 AM 50.0 °F - 32.0 °F 50% 30.20 in 10.0 mi NNW 8.1 mph - 0.00 in   Partly Cloudy
5:53 AM 46.9 °F - 32.0 °F 56% 30.21 in 10.0 mi NNW 6.9 mph - N/A   Clear
6:53 AM 46.0 °F 42.5 °F 30.9 °F 56% 30.24 in 10.0 mi NNW 6.9 mph - N/A   Clear
7:53 AM 46.9 °F - 30.9 °F 54% 30.26 in 10.0 mi NNW 6.9 mph - N/A   Clear
8:53 AM 53.1 °F - 34.0 °F 48% 30.27 in 10.0 mi NNW 6.9 mph - N/A   Clear
9:53 AM 59.0 °F - 39.0 °F 48% 30.29 in 10.0 mi NNW 9.2 mph - N/A   Clear
10:53 AM 64.9 °F - 42.1 °F 43% 30.29 in 10.0 mi NNW 8.1 mph - N/A   Clear
11:53 AM 68.0 °F - 43.0 °F 40% 30.27 in 10.0 mi Variable 6.9 mph 17.3 mph N/A   Clear
12:53 PM 69.1 °F - 43.0 °F 39% 30.24 in 10.0 mi NNE 8.1 mph 18.4 mph N/A   Clear
1:53 PM 69.1 °F - 43.0 °F 39% 30.22 in 10.0 mi NE 13.8 mph 18.4 mph N/A   Clear
2:53 PM 68.0 °F - 45.0 °F 43% 30.22 in 10.0 mi NE 12.7 mph - N/A   Clear
3:53 PM 68.0 °F - 46.9 °F 47% 30.22 in 10.0 mi NNE 10.4 mph - N/A   Clear
4:53 PM 64.9 °F - 48.0 °F 54% 30.22 in 10.0 mi NE 8.1 mph - N/A   Clear
5:53 PM 61.0 °F - 48.0 °F 62% 30.22 in 10.0 mi NNE 4.6 mph - N/A   Clear
6:53 PM 59.0 °F - 48.9 °F 69% 30.22 in 10.0 mi North 3.5 mph - N/A   Clear
7:53 PM 55.9 °F - 48.9 °F 77% 30.23 in 10.0 mi North 4.6 mph - N/A   Clear
8:53 PM 54.0 °F - 48.0 °F 80% 30.25 in 10.0 mi Calm Calm - N/A   Clear
9:53 PM 53.1 °F - 48.0 °F 83% 30.24 in 10.0 mi North 5.8 mph - N/A   Clear
10:53 PM 54.0 °F - 50.0 °F 86% 30.24 in 10.0 mi Calm Calm - N/A   Overcast
11:53 PM 55.9 °F - 51.1 °F 84% 30.22 in 10.0 mi Calm Calm - N/A   Overcast